Regional Weather Roundup
Issued by NWS Green Bay, WI

Home | Current Version | Previous Version | Graphics & Text | Print | Product List | Glossary Off
Versions: 1 2 3 4 5 6 7 8 9 10 11 12 13 14 15 16 17 18 19 20 21 22 23 24 25 26 27 28 29 30 31 32 33 34 35 36 37 38 39 40 41 42 43 44 45 46 47 48 49 50

000
ASUS43 KGRB 100411
RWRGRB

NORTH-CENTRAL AND NORTHEAST WISCONSIN REGIONAL WEATHER ROUNDUP
NATIONAL WEATHER SERVICE GREEN BAY WI
1000 PM CST FRI DEC 09 2016

WIZ005-009-010>012-018-019-100500-
NORTH CENTRAL WISCONSIN

CITY           SKY/WX    TMP DP  RH WIND       PRES   REMARKS
IRONWOOD       FLURRIES   9   4  80 W13       30.39S WCI  -7
MANITOWISH WTR CLOUDY     8   3  82 NW7       30.35S WCI  -4
ARBOR VITAE    CLOUDY    11   5  76 NW6       30.34S WCI   2
EAGLE RIVER    FLURRIES  11   4  74 NW12      30.34R WCI  -3
LAND O LAKES   CLOUDY    10   4  75 NW6       30.36R WCI   1
RHINELANDER    CLOUDY    13   6  74 VRB5      30.34F WCI   5
PHILLIPS       CLOUDY    11   5  77 NW5       30.36S WCI   3
ANTIGO         CLOUDY    14   9  81 W8        30.36S WCI   2
TOMAHAWK       LGT SNOW  13   8  81 NW6       30.37S WCI   4
MERRILL        CLOUDY    15   8  74 W7        30.38F WCI   5
$$

WIZ013-073-100500-
NORTHEAST WISCONSIN

CITY           SKY/WX    TMP DP  RH WIND       PRES   REMARKS
IRON MOUNTAIN  PTCLDY    12   2  64 W3        30.35S
MARINETTE      CLOUDY    18   6  59 VRB3      30.42S
OCONTO         CLOUDY    19   7  60 CALM      30.42F
$$

WIZ017-030-035>037-045-100500-
CENTRAL WISCONSIN

CITY           SKY/WX    TMP DP  RH WIND       PRES   REMARKS
MEDFORD        CLOUDY    13   9  83 SW5       30.37S WCI   5
WAUSAU         FLURRIES  15   8  73 W9        30.39S WCI   3
MOSINEE        FLURRIES  16  12  86 W7        30.40F WCI   6
MARSHFIELD     CLOUDY    15   7  70 W6        30.40S WCI   6
WISC RAPIDS    FLURRIES  17  11  77 W8        30.44S WCI   7
STEVENS POINT  FLURRIES  15   9  76 W9        30.42S WCI   3
WAUPACA        CLOUDY    20  11  68 CALM      30.44S
SHAWANO        CLOUDY    19  10  67 W7        30.43S WCI  10
CLINTONVILLE   CLOUDY    18  10  73 W3        30.43S
WAUTOMA        FLURRIES  18  12  77 W7        30.45S WCI   9
$$

WIZ038-039-048-051-100500-
FOX VALLEY

CITY           SKY/WX    TMP DP  RH WIND       PRES   REMARKS
NWS GREEN BAY  PTCLDY    18  10  71 W8        30.43F WCI   8
APPLETON       MOCLDY    18   9  68 W7        30.41F WCI   8
OSHKOSH        CLOUDY    18   9  68 W6        30.44S WCI  10
FOND DU LAC    CLOUDY    18   9  68 SW3       30.45S
$$

WIZ022-050-052-100500-
EAST CENTRAL WISCONSIN

CITY           SKY/WX    TMP DP  RH WIND       PRES   REMARKS
EPHRAIM        CLOUDY    19   6  58 NW10      30.38S WCI   7
WASHINGTON ISL CLOUDY    20   8  59 NW9       30.38R WCI   9
STURGEON BAY   CLOUDY    19   6  57 NW10      30.41S WCI   7
MANITOWOC      MOCLDY    19  10  68 NW7       30.44S WCI  10
SHEBOYGAN      CLOUDY    19  10  68 W3        30.44S
$$

LMZ563-521-522-541>543-100500-
LAKESHORE

STATION/POSITION TIME  TEMP    WIND        PRES    VSBY  WAVE
                       AIR SEA DIR/SP/G                  HT/PER
                 (UTC) (F)     (DEG/KT/KT) (MB)    (MI)  (FT/S)
SHEBOYGAN LKSHOR 0400   21     280/  5/  7 1032.0F
KEWAUNEE LKSHORE 0348   21     320/  5/  9 1029.6S
ALGOMA MARINA    0351          310/ 12/ 15   N/A
NORTHPORT PIER   0340   21     270/  8/ 12 1028.8S
SISTER BAY LKSHO 0350   21     310/ 17/ 21   N/A
CHAMBERS ISLAND  0340   19     280/ 11/ 18 1028.8S
MENOMINEE LKSHOR 0348   18     250/  6/  9 1028.9F
$$




USA.gov is the U.S. government's official web portal to all federal, state and local government web resources and services.